Temp
74 79 82 83 83 83 83 83 83 83 83 83 82 83 83 83 84 83 83 83 84 84 84 84 84 84 84 84 84 84 84 83 84 84 83 83 83 83 83 83 83 82 82
78 80 82 82 83 83 83 83 82 82 83 83 83 83 83 83 84 83 83 84 84 84 84 84 84 84 84 84 84 83 84 83 84 84 84 84 84 83 83 83 82 82 82
78 80 82 82 83 83 83 83 82 82 83 83 83 83 83 83 84 84 83 84 84 84 84 84 84 84 84 84 84 84 84 83 83 83 83 79 79 83 82 83 83 82 82
79 77 80 82 83 83 82 82 82 83 83 83 83 83 83 84 84 84 84 84 84 84 84 84 84 84 84 84 83 83 83 83 83 83 80 81 83 83 83 83 82 82 82
78 78 80 82 83 83 82 82 82 83 83 83 83 84 84 84 84 84 84 84 84 84 84 84 84 84 83 83 83 83 83 83 84 83 77 75 76 82 82 82 82 82 81
78 78 82 83 83 83 83 82 82 83 83 83 83 84 84 84 84 84 84 84 84 84 84 84 84 84 84 83 83 83 83 83 83 79 76 78 77 82 82 82 83 82 81
78 80 81 83 83 83 83 82 82 83 83 83 83 84 84 84 84 84 84 84 84 84 84 84 84 84 84 83 83 83 83 84 79 76 76 75 77 82 82 82 82 81 81
79 80 81 83 83 83 83 83 83 83 83 83 84 84 84 84 84 84 84 84 84 84 84 84 84 84 83 83 83 82 83 84 82 78 78 76 79 81 82 82 81 81 81
80 80 80 80 82 83 83 83 83 83 83 83 83 83 83 84 84 84 82 83 84 84 84 84 84 83 83 82 82 82 83 84 77 78 80 76 80 82 82 82 81 81 81
79 79 78 78 80 80 81 83 83 83 84 84 84 84 84 84 84 84 82 83 84 84 83 84 83 83 83 82 82 83 80 83 78 77 78 75 80 82 82 82 81 81 81
78 77 78 77 77 76 78 81 82 84 84 84 84 84 83 77 79 81 81 83 84 84 84 84 83 83 82 82 82 82 82 77 78 79 78 79 80 82 82 81 81 81 81
74 76 77 77 76 76 81 78 78 79 79 78 78 78 75 75 75 79 81 83 84 84 84 83 83 83 82 76 76 81 78 80 78 78 78 80 80 82 82 81 81 81 81
75 76 76 76 76 77 79 75 75 74 75 74 75 75 75 74 74 75 75 78 77 82 77 80 79 78 77 76 76 78 79 80 79 77 79 80 80 82 82 81 81 81 81
75 77 76 76 76 75 76 75 76 75 75 74 74 75 74 74 73 72 73 74 74 75 75 76 75 75 75 76 77 78 80 79 75 76 80 80 80 81 82 81 81 81 81
76 77 76 76 76 74 75 74 75 75 76 76 74 75 75 73 73 72 73 74 74 72 74 73 73 74 74 75 77 77 79 79 80 78 77 82 80 80 81 82 81 81 81
78 77 78 77 77 75 75 73 75 77 73 74 75 76 75 74 73 71 73 74 74 73 73 72 72 73 74 74 75 77 78 79 82 78 77 79 81 80 80 82 82 81 81
79 79 78 78 78 77 76 75 74 75 76 75 75 74 75 74 73 74 73 73 73 74 74 73 73 73 73 75 75 76 78 79 79 80 77 76 79 81 81 81 81 81 81
80 78 77 81 78 78 78 78 77 76 75 76 76 75 76 75 76 73 75 75 74 74 75 73 73 72 73 72 73 74 76 77 78 78 79 78 75 79 80 81 81 80 81
78 78 75 76 76 77 77 76 77 77 76 78 77 77 77 77 77 75 76 76 73 76 75 75 74 74 73 72 73 74 74 75 77 81 80 80 77 78 78 80 80 80 81
76 79 78 77 75 78 78 77 77 75 74 76 78 78 77 77 77 76 77 75 75 75 74 73 73 71 71 74 78 78 73 73 74 74 76 81 78 79 77 76 78 79 80
76 79 80 78 78 77 78 75 75 75 73 73 75 78 76 77 77 76 76 75 74 75 75 74 73 71 73 71 70 70 71 72 74 75 75 75 77 79 77 76 77 78 79
79 80 80 79 80 81 81 80 80 79 74 75 75 77 77 77 77 77 76 75 73 74 73 73 73 70 72 71 69 67 65 69 71 77 75 76 74 76 79 79 78 78 79
80 77 77 79 80 80 82 77 73 73 73 73 74 73 77 77 77 77 77 76 73 75 75 73 73 72 68 69 71 69 62 62 64 69 74 76 76 73 76 78 79 79 79
79 79 77 75 76 80 77 75 75 77 75 79 81 82 75 77 77 77 77 77 75 75 75 75 75 75 73 67 68 72 69 68 63 63 68 70 70 72 73 73 76 78 79
80 78 76 75 74 75 74 72 71 71 72 73 71 76 73 76 77 78 77 77 76 76 76 74 73 72 74 70 68 67 67 66 67 64 63 67 69 71 72 73 73 74 75
79 78 77 75 75 74 72 72 72 71 71 69 70 70 71 78 77 78 78 77 77 77 77 75 75 74 74 75 70 69 70 66 70 65 63 64 67 70 71 73 72 71 71
MSLP
1013.56 1013.22 1013.33 1013.40 1013.55 1013.88 1013.99 1014.07 1014.45 1014.93 1015.03 1015.36 1015.61 1015.75 1015.93 1016.27 1016.55 1016.70 1016.82 1017.10 1017.32 1017.53 1017.58 1017.55 1017.62 1017.81 1018.01 1018.20 1018.34 1018.53 1018.84 1019.01 1019.14 1019.19 1019.29 1019.33 1019.43 1019.47 1019.54 1019.65 1019.71 1019.79 1019.86
1013.01 1013.29 1013.39 1013.53 1013.85 1014.09 1014.26 1014.45 1014.89 1015.25 1015.43 1015.73 1015.97 1016.13 1016.25 1016.38 1016.73 1016.95 1017.14 1017.23 1017.48 1017.85 1017.98 1017.85 1017.90 1018.08 1018.33 1018.51 1018.67 1018.92 1019.07 1019.14 1019.23 1019.32 1019.47 1019.66 1019.73 1019.80 1019.82 1019.94 1020.05 1020.14 1020.16
1013.35 1013.47 1013.62 1013.75 1014.01 1014.23 1014.56 1014.92 1015.17 1015.55 1015.85 1015.99 1016.15 1016.54 1016.77 1016.81 1017.08 1017.20 1017.40 1017.55 1017.70 1017.90 1018.09 1018.20 1018.21 1018.33 1018.57 1018.81 1019.01 1019.14 1019.33 1019.42 1019.61 1019.60 1019.78 1019.95 1020.17 1020.22 1020.21 1020.16 1020.25 1020.36 1020.46
1013.28 1013.60 1013.64 1013.91 1014.16 1014.44 1014.77 1015.01 1015.36 1015.87 1016.21 1016.33 1016.57 1016.83 1016.91 1017.23 1017.43 1017.57 1017.63 1017.72 1018.02 1018.11 1018.22 1018.36 1018.57 1018.69 1018.81 1019.04 1019.24 1019.37 1019.42 1019.64 1019.67 1019.91 1020.04 1020.11 1020.23 1020.42 1020.55 1020.55 1020.59 1020.62 1020.75
1013.43 1013.71 1013.92 1014.10 1014.37 1014.61 1014.93 1015.29 1015.65 1016.02 1016.33 1016.64 1016.97 1017.06 1017.26 1017.48 1017.63 1017.77 1017.90 1017.93 1018.29 1018.34 1018.50 1018.50 1018.66 1018.90 1019.12 1019.30 1019.44 1019.65 1019.68 1019.77 1019.72 1020.01 1020.35 1020.40 1020.52 1020.62 1020.76 1020.86 1020.83 1020.87 1020.91
1013.47 1013.77 1014.02 1014.29 1014.61 1014.86 1015.17 1015.51 1015.89 1016.15 1016.47 1016.83 1017.15 1017.26 1017.49 1017.73 1017.85 1017.96 1018.12 1018.14 1018.38 1018.46 1018.57 1018.76 1018.83 1019.06 1019.20 1019.45 1019.59 1019.75 1019.90 1019.92 1019.87 1020.02 1020.47 1020.51 1020.61 1020.70 1020.83 1020.90 1020.94 1021.00 1021.11
1013.41 1013.72 1014.03 1014.35 1014.76 1015.12 1015.37 1015.67 1016.01 1016.38 1016.65 1016.89 1017.13 1017.41 1017.64 1017.87 1017.94 1018.16 1018.27 1018.34 1018.47 1018.55 1018.67 1018.84 1019.03 1019.19 1019.27 1019.51 1019.62 1019.86 1019.89 1019.88 1020.05 1020.18 1020.40 1020.57 1020.57 1020.64 1020.80 1021.07 1021.23 1021.20 1021.23
1013.17 1013.54 1014.01 1014.41 1014.82 1015.25 1015.53 1015.78 1016.18 1016.51 1016.77 1016.98 1017.17 1017.52 1017.77 1018.00 1018.18 1018.32 1018.39 1018.52 1018.58 1018.87 1018.78 1018.89 1019.12 1019.27 1019.33 1019.54 1019.74 1019.92 1019.94 1019.86 1020.08 1020.36 1020.44 1020.51 1020.47 1020.60 1020.81 1021.08 1021.30 1021.34 1021.34
1013.23 1013.63 1014.07 1014.45 1014.83 1015.23 1015.58 1015.91 1016.29 1016.64 1016.96 1017.24 1017.39 1017.60 1017.88 1018.05 1018.16 1018.34 1018.64 1018.59 1018.72 1019.02 1018.96 1019.04 1019.15 1019.33 1019.37 1019.60 1019.86 1020.09 1020.09 1019.87 1020.00 1020.38 1020.55 1020.64 1020.54 1020.50 1020.72 1020.99 1021.30 1021.49 1021.58
1013.58 1013.77 1014.28 1014.80 1015.04 1015.34 1015.62 1015.88 1016.27 1016.64 1017.01 1017.28 1017.51 1017.70 1017.85 1017.99 1018.13 1018.33 1018.57 1018.69 1018.81 1019.00 1019.12 1019.24 1019.27 1019.32 1019.46 1019.61 1019.74 1020.15 1020.19 1020.12 1020.17 1020.48 1020.51 1020.78 1020.67 1020.67 1020.68 1020.92 1021.13 1021.40 1021.61
1014.14 1014.25 1014.40 1014.82 1015.22 1015.54 1015.75 1015.93 1016.24 1016.57 1016.91 1017.21 1017.49 1017.71 1017.95 1018.17 1018.17 1018.31 1018.63 1018.74 1018.75 1018.92 1019.20 1019.21 1019.25 1019.31 1019.51 1019.61 1019.68 1020.04 1020.10 1020.19 1020.26 1020.36 1020.33 1020.63 1020.77 1020.68 1020.80 1020.91 1021.05 1021.23 1021.45
1014.38 1014.68 1014.96 1014.98 1015.25 1015.60 1015.75 1016.02 1016.32 1016.51 1016.81 1017.16 1017.43 1017.68 1018.00 1018.18 1018.18 1018.30 1018.54 1018.65 1018.72 1018.91 1019.06 1019.12 1019.17 1019.26 1019.40 1019.63 1019.73 1019.84 1020.14 1020.15 1020.13 1020.05 1020.26 1020.54 1020.92 1020.84 1020.87 1021.01 1021.08 1021.17 1021.35
1014.25 1014.74 1015.08 1015.32 1015.38 1015.54 1015.68 1016.08 1016.41 1016.57 1016.85 1017.19 1017.41 1017.58 1017.79 1018.11 1018.25 1018.27 1018.47 1018.44 1018.63 1018.71 1018.96 1019.05 1019.18 1019.29 1019.46 1019.65 1019.70 1019.73 1019.81 1019.74 1019.92 1020.01 1020.30 1020.64 1020.91 1020.86 1020.79 1020.91 1021.02 1021.11 1021.25
1014.23 1014.56 1014.96 1015.15 1015.45 1015.68 1015.88 1016.16 1016.37 1016.59 1016.78 1017.09 1017.22 1017.32 1017.63 1017.80 1018.18 1018.38 1018.48 1018.37 1018.57 1018.70 1018.83 1019.04 1019.20 1019.29 1019.35 1019.57 1019.67 1019.74 1019.61 1019.39 1019.63 1019.93 1019.96 1020.13 1020.34 1020.51 1020.53 1020.70 1020.85 1021.08 1021.17
1014.13 1014.51 1014.80 1015.15 1015.52 1015.69 1015.91 1016.28 1016.52 1016.62 1016.65 1016.76 1017.03 1017.16 1017.31 1017.60 1017.81 1018.21 1018.27 1018.33 1018.45 1018.48 1018.72 1019.10 1019.26 1019.19 1019.22 1019.28 1019.43 1019.60 1019.55 1019.21 1019.31 1019.52 1019.61 1019.58 1019.88 1020.11 1020.17 1020.42 1020.61 1020.72 1020.93
1013.27 1013.95 1014.58 1014.88 1015.08 1015.51 1015.91 1016.09 1016.24 1016.37 1016.48 1016.60 1016.82 1016.84 1016.96 1017.13 1017.46 1017.89 1018.13 1018.33 1018.53 1018.41 1018.51 1018.94 1019.20 1019.22 1019.19 1019.01 1019.07 1019.16 1019.19 1019.07 1018.99 1019.25 1019.30 1019.35 1019.54 1019.76 1019.82 1019.84 1020.12 1020.27 1020.35
1013.05 1013.18 1013.87 1014.45 1014.66 1015.27 1015.58 1015.66 1015.93 1016.05 1016.35 1016.49 1016.54 1016.58 1016.72 1017.06 1017.43 1017.53 1017.95 1018.17 1018.27 1018.08 1018.25 1018.81 1019.05 1019.10 1019.17 1018.93 1019.07 1018.93 1018.86 1018.88 1018.79 1018.93 1019.14 1019.28 1019.35 1019.48 1019.43 1019.51 1019.72 1019.89 1020.01
1012.91 1013.35 1013.66 1014.13 1014.35 1014.70 1015.02 1015.09 1015.40 1015.69 1016.02 1016.20 1016.31 1016.40 1016.45 1016.72 1016.93 1017.28 1017.41 1017.68 1017.81 1017.85 1018.10 1018.50 1018.84 1018.96 1019.10 1019.01 1019.09 1018.83 1018.64 1018.70 1018.63 1018.66 1018.73 1018.88 1019.12 1019.04 1019.12 1019.24 1019.49 1019.62 1019.62
1012.34 1012.97 1013.66 1014.14 1014.51 1014.43 1014.55 1014.64 1014.75 1015.10 1015.52 1015.65 1015.84 1015.96 1016.07 1016.19 1016.56 1016.78 1016.90 1016.99 1017.35 1017.54 1017.72 1018.01 1018.36 1018.56 1018.71 1018.76 1018.95 1018.76 1018.62 1018.51 1018.54 1018.37 1018.33 1018.45 1018.69 1018.67 1018.67 1018.66 1018.93 1019.14 1019.18
1012.61 1012.55 1012.97 1013.46 1014.31 1014.40 1014.31 1014.49 1014.59 1014.88 1015.01 1015.18 1015.17 1015.37 1015.50 1015.72 1015.94 1016.35 1016.45 1016.66 1016.94 1017.29 1017.48 1017.69 1017.95 1018.09 1018.25 1018.39 1018.48 1018.38 1018.40 1018.34 1018.11 1018.22 1018.17 1017.93 1018.16 1018.31 1018.37 1018.26 1018.38 1018.67 1018.70
1012.33 1012.48 1012.78 1013.58 1013.18 1013.88 1014.33 1014.45 1014.58 1014.67 1014.80 1014.91 1014.86 1014.72 1014.94 1015.17 1015.53 1015.91 1016.07 1016.31 1016.64 1016.95 1016.94 1017.13 1017.47 1017.82 1018.10 1018.18 1018.55 1018.54 1018.43 1018.02 1017.97 1017.73 1017.42 1017.54 1017.62 1017.63 1017.72 1017.87 1017.95 1017.98 1017.96
1011.71 1011.83 1012.35 1012.48 1012.77 1012.85 1012.92 1013.07 1013.38 1013.62 1013.89 1014.12 1014.27 1014.27 1014.42 1014.58 1014.84 1015.25 1015.58 1015.90 1016.23 1016.63 1016.84 1016.90 1017.17 1017.57 1017.66 1017.69 1018.27 1018.68 1018.62 1018.30 1017.82 1017.39 1017.32 1017.27 1017.22 1017.13 1017.11 1017.16 1017.32 1017.40 1017.33
1011.78 1012.18 1012.07 1011.97 1012.09 1012.25 1012.44 1012.89 1013.29 1013.44 1013.59 1013.64 1013.74 1014.07 1013.98 1014.05 1014.26 1014.33 1014.60 1015.04 1015.50 1015.88 1016.22 1016.44 1016.64 1016.88 1017.17 1017.36 1017.42 1017.74 1018.45 1018.37 1017.99 1017.14 1016.89 1016.88 1016.89 1016.79 1016.62 1016.61 1016.72 1016.76 1016.68
1011.20 1011.21 1011.40 1011.90 1011.95 1012.07 1012.17 1012.65 1012.58 1012.76 1013.02 1012.88 1012.93 1012.96 1013.20 1013.19 1013.43 1013.71 1013.91 1014.20 1014.69 1015.14 1015.40 1015.56 1015.93 1016.10 1016.50 1016.94 1017.30 1017.23 1017.17 1017.36 1017.84 1017.73 1017.01 1016.66 1016.50 1016.41 1016.29 1016.33 1016.22 1016.13 1016.14
1010.55 1010.86 1011.22 1011.67 1012.11 1011.91 1012.16 1012.68 1012.52 1012.77 1012.85 1012.65 1012.81 1012.66 1012.69 1012.71 1012.63 1012.71 1013.03 1013.44 1013.91 1014.25 1014.45 1014.63 1015.06 1015.47 1015.70 1015.95 1016.24 1016.61 1016.91 1017.06 1017.14 1017.66 1017.61 1016.91 1016.40 1016.05 1015.83 1015.89 1015.78 1015.80 1015.76
1010.67 1010.79 1011.09 1011.46 1011.59 1011.66 1012.04 1012.20 1012.27 1012.38 1012.40 1012.62 1012.56 1012.58 1012.53 1012.17 1012.16 1012.23 1012.18 1012.62 1012.97 1013.35 1013.53 1013.74 1014.00 1014.44 1014.84 1015.06 1015.37 1015.61 1015.75 1016.23 1016.60 1016.97 1017.23 1016.86 1016.62 1015.98 1015.66 1015.48 1015.48 1015.39 1015.31
Wind_Speed
4 5 14 18 19 19 20 20 20 20 21 21 22 23 23 22 20 18 17 17 17 16 16 17 18 17 17 17 16 16 17 17 17 17 16 16 15 16 15 15 15 10 15
12 8 13 17 19 18 19 19 20 20 20 22 21 21 21 21 19 18 17 18 18 17 16 17 17 17 17 16 17 16 17 17 16 16 14 14 14 14 15 13 13 11 14
12 8 12 16 18 18 18 18 19 20 21 21 22 20 19 18 18 18 18 18 17 17 15 14 15 16 16 15 14 16 16 15 15 16 15 7 7 14 15 15 13 12 12
11 6 10 16 17 19 19 18 19 21 21 20 20 19 19 17 16 16 17 17 15 15 14 13 12 14 15 14 14 14 14 13 14 14 5 6 10 14 12 15 13 13 13
10 9 11 17 18 20 20 19 20 19 18 18 18 18 17 17 15 16 16 16 14 14 12 12 11 12 14 13 12 11 11 11 8 8 5 6 5 11 12 13 11 11 11
12 9 15 18 19 20 20 18 19 19 18 18 17 17 16 15 15 15 14 14 13 13 12 10 10 12 13 12 10 8 7 4 4 8 6 8 5 13 13 12 12 11 10
14 12 13 18 18 18 18 19 19 18 18 18 18 16 15 14 14 12 13 12 11 12 12 10 8 8 12 11 9 6 5 2 5 6 6 5 6 12 13 12 11 11 9
16 14 13 17 18 19 19 20 19 19 18 18 17 16 14 13 12 12 10 11 11 9 11 10 7 5 7 9 7 6 4 2 4 6 6 5 10 13 14 12 12 11 10
15 14 12 12 15 19 19 19 18 18 17 17 17 16 15 14 13 12 11 10 9 7 9 8 7 5 4 4 5 5 2 4 6 4 7 4 12 15 15 14 12 10 10
14 13 12 10 10 10 12 19 18 18 17 17 16 16 16 15 14 12 9 9 9 7 7 7 6 6 4 2 2 4 0 5 5 5 4 3 13 15 16 15 13 12 10
10 11 12 10 8 6 8 13 15 19 18 17 16 16 11 4 6 9 8 10 10 8 7 8 6 6 5 3 4 0 3 2 3 5 4 10 14 15 15 14 13 12 12
12 10 9 10 10 9 8 8 7 8 7 6 6 7 4 5 4 5 9 11 9 9 8 8 8 8 6 1 2 4 2 2 3 5 3 13 13 14 14 13 14 13 12
14 10 10 9 9 9 8 4 3 3 4 4 6 6 5 4 4 4 3 4 3 8 3 5 4 3 3 2 3 3 3 4 2 3 5 13 12 14 14 14 14 13 13
15 13 11 10 9 6 5 5 5 4 5 5 5 7 5 4 4 4 3 4 4 3 4 4 3 4 5 5 4 4 5 5 3 3 8 17 16 16 16 15 14 13 13
15 14 14 11 10 6 7 4 5 5 5 6 5 6 5 5 5 4 4 4 4 4 4 3 3 4 4 4 5 5 6 5 7 4 5 18 18 17 16 16 15 15 14
17 16 14 14 12 8 8 7 7 6 5 5 6 7 8 6 5 4 3 4 4 5 4 4 4 4 4 3 5 5 5 5 5 5 5 8 17 15 17 17 17 17 16
16 18 17 16 13 12 11 9 5 5 5 6 6 6 6 5 5 7 5 4 5 4 5 4 4 4 4 4 5 5 4 4 4 8 5 4 7 16 17 18 17 17 17
14 17 15 14 14 15 12 10 7 5 5 6 5 6 7 7 8 6 7 7 6 4 5 4 5 4 4 4 3 4 4 4 5 6 6 5 5 7 13 17 18 18 19
15 15 13 11 12 14 11 8 9 9 7 7 6 6 9 9 8 8 6 6 6 6 6 7 5 5 4 4 5 5 4 4 5 5 7 8 9 8 6 15 18 19 21
6 14 16 12 10 13 9 8 6 5 5 5 8 8 10 9 10 9 7 5 6 6 5 4 5 4 4 5 5 4 4 5 5 5 6 6 8 9 7 7 8 11 20
7 10 16 16 19 11 7 7 6 7 4 3 6 10 10 10 11 11 8 7 6 8 9 8 6 6 8 4 2 3 4 5 6 6 5 4 5 7 7 6 6 6 8
12 12 14 17 16 15 11 12 8 8 4 4 5 8 10 11 12 11 10 8 8 6 7 8 8 3 5 5 4 1 2 4 4 8 5 6 7 5 7 8 9 10 9
12 9 10 13 14 15 14 4 1 2 2 1 4 4 9 12 12 14 13 10 9 9 8 9 9 9 5 3 6 5 2 5 1 3 7 7 7 5 7 7 9 11 10
6 7 10 7 9 11 8 6 9 8 9 10 10 9 7 12 13 14 14 14 12 9 10 10 10 10 6 6 1 6 1 5 4 3 2 3 5 7 6 4 5 8 9
7 6 6 6 4 7 6 6 5 5 5 6 3 9 6 10 13 15 15 14 12 10 11 11 8 9 10 6 6 3 4 3 3 3 4 4 2 4 5 5 5 5 6
6 7 7 7 7 7 7 7 8 8 7 5 5 6 7 7 9 14 15 14 14 13 13 11 12 12 11 9 5 5 5 5 5 4 3 5 4 4 3 4 5 5 6
Wind_Direction
169 165 135 129 125 123 120 115 114 120 118 119 119 117 119 118 115 112 109 108 110 110 113 110 109 110 111 112 108 111 110 110 110 109 111 111 113 111 106 106 108 110 114
141 141 131 129 129 123 117 116 123 121 119 122 122 117 119 119 116 110 108 111 108 111 114 113 114 112 110 112 114 115 118 119 115 108 114 118 113 114 113 113 105 115 115
138 147 131 129 130 127 124 124 120 124 125 124 125 122 115 115 117 116 113 110 110 110 109 110 113 114 114 112 116 120 121 122 116 109 102 94 108 116 116 112 117 114 105
137 130 129 130 127 131 129 127 124 131 130 127 125 125 121 120 120 118 117 112 109 112 112 115 113 115 115 116 118 123 123 128 119 114 101 110 113 116 121 125 117 124 128
129 129 139 131 132 133 130 130 133 131 126 125 129 125 123 123 121 122 121 119 118 116 116 118 120 117 115 116 118 124 127 144 161 104 104 104 108 127 121 119 119 117 120
131 135 139 136 137 136 134 133 134 131 132 131 130 127 126 128 127 125 125 124 126 124 122 125 132 131 122 122 126 135 126 145 106 134 131 139 134 133 134 143 129 133 130
137 142 140 141 141 141 138 137 137 136 138 138 138 136 136 134 130 130 134 132 135 132 130 132 137 143 129 129 129 122 103 87 110 121 141 144 143 133 129 131 133 130 123
141 140 145 144 143 148 145 143 142 146 143 144 144 145 140 136 138 142 136 139 130 141 138 139 150 168 139 137 130 124 107 49 113 145 156 151 155 143 143 142 146 143 141
140 142 146 148 153 154 151 148 150 152 153 152 151 149 149 148 145 140 149 136 138 140 143 152 161 192 187 144 140 119 107 54 126 147 159 166 165 153 152 152 155 157 156
144 144 146 152 153 153 155 154 160 160 160 160 157 162 160 159 155 153 150 151 152 147 156 169 171 193 228 191 232 110 16 84 127 151 162 199 172 165 159 163 163 163 164
145 150 152 155 151 151 151 165 164 161 165 168 168 170 169 161 165 166 165 169 156 158 178 178 183 200 228 216 259 291 252 220 182 197 180 189 183 174 169 165 166 173 179
152 157 164 158 156 156 163 167 165 172 167 165 169 175 162 180 175 166 183 183 180 177 182 193 196 209 214 205 274 291 271 261 222 179 179 180 194 183 177 176 177 179 183
162 159 167 165 163 164 166 160 161 157 152 160 171 176 174 176 205 190 197 190 183 189 186 196 205 214 211 240 267 277 259 246 231 174 159 175 198 195 187 187 187 188 187
167 169 167 170 170 174 156 169 174 169 170 178 188 189 175 181 202 211 198 180 176 185 176 190 206 213 223 234 238 270 270 255 166 158 172 186 199 202 194 197 195 198 199
170 172 175 171 174 167 161 172 184 191 186 191 197 195 186 184 185 191 189 184 192 171 177 198 221 226 235 246 257 231 244 196 169 175 179 193 201 204 200 202 204 201 207
172 174 175 181 177 166 172 180 192 196 194 189 196 205 196 193 181 173 183 195 209 183 168 187 206 222 244 249 261 242 218 220 196 175 200 201 206 206 200 201 207 207 208
182 171 178 182 178 177 183 188 190 192 184 198 203 208 193 190 169 177 189 190 211 183 164 199 220 230 248 276 255 249 215 202 188 187 193 193 211 211 207 208 209 209 212
174 184 178 186 183 185 187 190 193 191 183 204 207 208 208 189 197 189 192 196 200 180 187 196 211 217 226 225 244 258 257 187 214 198 201 192 206 209 215 214 217 214 214
176 175 181 187 192 190 192 190 190 188 194 206 203 204 207 204 195 194 199 206 179 202 203 201 204 198 206 222 230 240 258 256 192 220 216 208 212 217 205 215 216 218 221
204 179 180 185 194 200 192 193 200 200 195 202 210 207 204 207 198 202 208 206 188 199 200 187 193 196 204 213 229 236 246 252 258 216 208 219 210 222 214 201 209 225 227
186 179 186 189 195 186 195 194 208 215 196 208 206 206 203 203 201 202 208 205 191 202 207 201 200 201 222 206 152 298 282 262 265 256 246 229 223 223 205 201 201 213 229
201 189 194 198 195 198 194 197 200 199 195 178 191 215 206 206 203 198 203 204 201 202 212 208 195 179 220 174 171 120 283 313 275 243 247 245 244 218 229 217 211 218 223
213 218 200 201 199 196 204 185 48 78 333 221 207 194 211 204 207 206 203 205 202 203 210 214 210 206 205 216 200 150 155 225 289 255 240 234 235 222 224 227 218 225 223
152 196 201 195 196 206 205 202 208 208 214 226 228 230 198 203 207 209 211 207 204 201 206 207 213 213 199 214 205 232 216 148 191 310 308 262 240 235 223 218 221 227 231
91 100 159 182 223 203 189 208 205 211 217 237 229 233 206 206 209 208 209 212 214 212 210 196 193 198 207 192 191 164 205 204 174 158 272 303 306 247 225 215 221 234 235
135 139 157 183 219 215 205 217 211 225 237 235 237 236 236 221 215 216 211 211 215 218 216 208 204 206 208 216 193 187 179 179 204 175 201 237 236 279 254 225 221 217 231